CST,Max TemperatureF,Mean TemperatureF,Min TemperatureF,Max Dew PointF,MeanDew PointF,Min DewpointF,Max Humidity, Mean Humidity, Min Humidity, Max Sea Level PressureIn, Mean Sea Level PressureIn, Min Sea Level PressureIn, Max VisibilityMiles, Mean VisibilityMiles, Min VisibilityMiles, Max Wind SpeedMPH, Mean Wind SpeedMPH, Max Gust SpeedMPH,PrecipitationIn, CloudCover, Events, WindDirDegrees
2013-1-1,31,28,26,32,28,26,100,99,94,30.29,30.22,30.09,10,7,3,17,11,22,0.00,8,,331
2013-1-2,44,32,21,32,27,21,100,86,59,30.32,30.26,30.18,10,10,7,15,6,22,0.00,2,,277
2013-1-3,39,30,22,28,25,22,100,84,56,30.47,30.41,30.32,10,10,10,13,5,,0.00,0,,314
2013-1-4,45,32,20,33,28,20,100,77,51,30.43,30.35,30.25,10,10,10,17,5,20,0.00,4,,201
2013-1-5,50,40,30,34,32,26,90,75,48,30.33,30.21,30.14,10,10,10,16,10,21,0.00,4,,239
2013-1-6,52,38,24,32,27,23,96,72,40,30.44,30.35,30.29,10,10,10,8,4,,0.00,0,,283
2013-1-7,50,40,29,32,29,24,81,66,46,30.29,30.16,30.03,10,10,10,20,9,26,0.00,0,,187
2013-1-8,53,42,31,42,36,31,100,80,56,30.18,30.04,29.98,10,10,10,16,8,22,0.00,2,,193
2013-1-9,49,42,35,44,37,32,100,84,60,30.35,30.24,30.13,10,9,2,18,8,29,0.14,5,Rain,10
2013-1-10,50,46,43,51,47,44,100,100,100,30.13,29.90,29.80,10,4,0,13,8,18,0.39,7,Fog-Rain,47
2013-1-11,64,54,45,53,47,32,100,81,47,29.84,29.71,29.61,10,10,10,30,15,38,0.00,0,,207
2013-1-12,49,37,25,34,25,18,89,71,49,30.08,29.98,29.84,10,10,10,29,16,33,0.00,3,,357
2013-1-13,30,24,18,18,15,12,87,70,50,30.36,30.24,30.11,10,10,10,20,14,26,0.00,0,,355
2013-1-14,33,26,18,19,16,14,91,69,47,30.41,30.34,30.28,10,10,10,14,8,18,0.00,3,,39
2013-1-15,34,27,20,20,18,15,93,75,46,30.30,30.26,30.21,10,10,10,10,6,,0.00,3,,10
2013-1-16,50,34,18,34,25,16,94,76,43,30.25,30.17,30.10,10,10,10,10,3,16,0.00,1,,278
2013-1-17,54,42,30,35,32,29,93,75,46,30.52,30.43,30.26,10,10,10,13,6,,0.00,0,,337
2013-1-18,58,46,33,37,34,31,92,66,44,30.46,30.29,30.14,10,10,10,25,10,33,0.00,0,,196
2013-1-19,65,50,34,37,34,30,88,62,32,30.24,30.14,30.08,10,10,10,15,8,21,0.00,0,,250
2013-1-20,61,44,27,39,32,20,99,71,40,30.32,30.20,30.10,10,10,10,23,5,30,0.00,0,,14
2013-1-21,40,31,22,22,18,14,83,61,41,30.43,30.33,30.24,10,10,10,16,11,20,0.00,0,,39
2013-1-22,58,40,23,36,27,20,94,66,40,30.25,30.19,30.11,10,10,10,20,5,25,0.00,0,,181
2013-1-23,67,46,25,47,37,25,100,78,46,30.23,30.17,30.10,10,10,10,13,4,,0.00,0,,304
2013-1-24,44,37,30,39,27,23,93,78,68,30.28,30.20,30.13,10,10,10,17,12,21,0.00,5,,19
2013-1-25,50,37,24,32,29,24,100,76,49,30.25,30.20,30.12,10,10,7,13,5,17,0.00,1,,22
2013-1-26,53,40,26,46,36,26,100,88,60,30.23,30.13,29.97,10,9,5,17,4,22,0.00,3,,159
2013-1-27,72,58,45,60,54,45,100,86,58,30.01,29.87,29.78,10,7,1,23,13,32,0.00,5,,181
2013-1-28,73,63,53,63,58,50,95,83,65,29.90,29.80,29.70,10,10,10,24,13,33,0.00,2,,188
2013-1-29,66,52,37,64,50,35,100,90,81,29.71,29.61,29.53,10,10,2,23,11,39,0.44,5,Rain-Thunderstorm,321
2013-1-30,45,39,33,35,28,22,89,70,43,30.04,29.94,29.68,10,10,10,24,15,34,0.00,3,,306
2013-1-31,54,39,24,32,25,17,80,62,38,30.41,30.16,30.01,10,10,10,26,9,31,0.00,0,,347